Location: Torrington
(42.0650°N, 104.1810°W)
Time: 23:36:30
(UTC-06:00)

Amateur Radio Satellites - All Passes

Search period start: 31 August 2016 23:06
Search period end: 01 September 2016 23:06
Location: Torrington, 42.0650°N, 104.1810°W

Satellite Date Start Highest point End Downlink Frequencies (MHz)
Time Altitude Azimuth
Cosmos 2499 31 Aug 23:08:11 23:15:13 67° 80° (E) 23:22:23 435.465 / 435.565
SPROUT 31 Aug 23:15:03 23:17:36 16° 64° (ENE) 23:20:09 437.525
UNISAT 6 31 Aug 23:15:21 23:19:38 74° 102° (ESE) 23:23:53 437.425
CUBEBUG 1 31 Aug 23:17:57 23:22:03 39° 70° (ENE) 23:26:10 437.445
O/OREOS (USA 219) 31 Aug 23:18:56 23:23:34 80° 248° (WSW) 23:28:09 437.305
GONETS M04 31 Aug 23:21:13 23:30:07 84° 264° (W) 23:38:57
RS-15 31 Aug 23:21:37 23:30:09 25° 100° (E) 23:38:56 29.354- 29.394
CUSAT 1 31 Aug 23:21:44 23:24:54 85° 280° (W) 23:29:01 437.405
DANDE 31 Aug 23:23:05 23:24:56 17° 89° (E) 23:26:58 436.750
DUCHIFAT 1 31 Aug 23:25:37 23:26:32 11° 89° (E) 23:27:27 145.980
VELOX 1 31 Aug 23:28:18 23:32:29 41° 71° (ENE) 23:36:41 145.980
AUBIESAT-1 31 Aug 23:28:36 23:33:12 60° 254° (WSW) 23:37:44 437.475
DX 1 31 Aug 23:29:49 23:33:36 29° 68° (ENE) 23:37:25 434.975-435.025
QB50P2 31 Aug 23:33:38 23:36:24 17° 92° (E) 23:39:08 145.880/145.840
POLYITAN 1 31 Aug 23:36:07 23:38:53 17° 92° (E) 23:41:38 437.675
SO-50 31 Aug 23:37:08 23:41:50 48° 309° (NW) 23:46:30 436.795
M-CUBED/EXP-1 PRIME 31 Aug 23:38:44 23:43:09 39° 257° (WSW) 23:47:32 437.505
NANOSAT C BR1 31 Aug 23:40:09 23:42:59 17° 93° (E) 23:45:48 145.865
ANTELSAT 31 Aug 23:52:20 23:56:23 43° 288° (WNW) 00:00:25 437.575/2403.000
UKube-1 01 Sep 00:00:39 00:04:49 48° 72° (ENE) 00:09:00 .
BUGSAT 1 01 Sep 00:00:58 00:02:00 11° 90° (E) 00:03:01 437.445
50 SAT 01 Sep 00:04:07 00:07:41 75° 258° (WSW) 00:11:17 437.505
AISAT 01 Sep 00:17:35 00:21:58 55° 259° (W) 00:26:23 437.250
TIGRISAT 01 Sep 00:22:26 00:25:48 23° 293° (WNW) 00:29:07 435.000
QB50P1 01 Sep 00:26:03 00:30:14 61° 101° (E) 00:34:23 145.935-145.965
ESTCUBE 1 01 Sep 00:30:16 00:33:54 24° 265° (W) 00:37:33 437.505/2401.250
PHONESAT 2.4 01 Sep 00:31:55 00:34:38 31° 161° (SSE) 00:37:21 2401.200-2431.200
POPSAT HIP 1 01 Sep 00:36:31 00:40:45 80° 103° (ESE) 00:44:56 437.405
JAS-2 01 Sep 00:48:19 00:55:17 58° 100° (E) 01:02:51 435.910
SPROUT 01 Sep 00:48:55 00:53:07 51° 260° (W) 00:57:21 437.525
TISAT 1 01 Sep 00:50:42 00:54:33 35° 70° (ENE) 00:58:26 437.305
UNISAT 6 01 Sep 00:54:35 00:55:44 11° 299° (WNW) 00:56:53 437.425
CUBEBUG 1 01 Sep 00:55:14 00:58:27 20° 267° (W) 01:01:43 437.445
DUCHIFAT 1 01 Sep 00:58:30 01:02:39 64° 286° (WNW) 01:06:46 145.980
Cosmos 2499 01 Sep 01:02:41 01:07:36 21° 278° (W) 01:12:36 435.465 / 435.565
VELOX 1 01 Sep 01:05:57 01:09:06 19° 267° (W) 01:12:17 145.980
SWISSCUBE 01 Sep 01:06:02 01:08:22 14° 60° (ENE) 01:10:41 437.505
DX 1 01 Sep 01:06:06 01:09:46 26° 264° (W) 01:13:28 434.975-435.025
DANDE 01 Sep 01:06:31 01:07:44 12° 294° (WNW) 01:09:01 436.750
QB50P2 01 Sep 01:08:25 01:12:23 41° 289° (WNW) 01:16:20 145.880/145.840
POLYITAN 1 01 Sep 01:10:56 01:14:53 40° 288° (WNW) 01:18:47 437.675
NANOSAT C BR1 01 Sep 01:14:56 01:18:52 39° 289° (WNW) 01:22:45 145.865
GONETS M04 01 Sep 01:20:31 01:25:29 17° 284° (WNW) 01:30:27
BEESAT 01 Sep 01:21:42 01:24:48 18° 63° (ENE) 01:27:54 436.000
SO-50 01 Sep 01:22:36 01:23:28 10° 329° (NNW) 01:24:21 436.795
RS-15 01 Sep 01:29:20 01:40:55 89° 302° (WNW) 01:53:11 29.354- 29.394
BUGSAT 1 01 Sep 01:33:43 01:37:47 60° 286° (WNW) 01:41:47 437.445
UKube-1 01 Sep 01:38:33 01:41:07 15° 268° (W) 01:43:42 .
QB50P1 01 Sep 02:03:38 02:05:29 13° 298° (WNW) 02:07:21 145.935-145.965
PHONESAT 2.4 01 Sep 02:07:47 02:10:46 64° 176° (S) 02:13:44 2401.200-2431.200
ITUPSAT 1 01 Sep 02:10:37 02:15:12 50° 71° (ENE) 02:19:48 437.325
POPSAT HIP 1 01 Sep 02:15:50 02:15:52 10° 300° (WNW) 02:15:55 437.405
Oscar 19 01 Sep 02:17:39 02:22:49 62° 101° (E) 02:27:57 437.125/150
TISAT 1 01 Sep 02:27:08 02:30:17 20° 266° (W) 02:33:28 437.305
Gurwin Techsat 1B 01 Sep 02:27:53 02:32:47 36° 97° (E) 02:37:38 435.225
MOZHAYETS 4 01 Sep 02:30:32 02:32:20 12° 61° (ENE) 02:34:09
JAS-2 01 Sep 02:34:02 02:39:58 31° 296° (WNW) 02:46:22 435.910
SWISSCUBE 01 Sep 02:40:49 02:45:32 73° 257° (WSW) 02:50:18 437.505
AO-7 01 Sep 02:48:23 02:49:38 10° 85° (E) 02:50:53 29.400- 29.500
BEESAT 01 Sep 02:57:30 03:02:09 54° 259° (W) 03:06:50 436.000
Cosmos 2491 01 Sep 03:03:53 03:07:38 13° 55° (NE) 03:11:23 435.465 / 435.565
KKS-1 01 Sep 03:23:18 03:27:15 32° 69° (ENE) 03:31:16 437.445
AO-85 01 Sep 03:36:28 03:40:34 23° 112° (ESE) 03:44:33 145.980
ITAMSAT 1 01 Sep 03:42:35 03:47:39 52° 100° (E) 03:52:42 435.822/435.867
PHONESAT 2.4 01 Sep 03:44:04 03:46:57 43° 193° (SSW) 03:49:48 2401.200-2431.200
RS-15 01 Sep 03:44:46 03:55:16 35° 330° (NNW) 04:06:12 29.354- 29.394
STARS 01 Sep 03:45:50 03:49:35 27° 67° (ENE) 03:53:20 437.465
ITUPSAT 1 01 Sep 03:50:08 03:53:19 18° 268° (W) 03:56:30 437.325
Oscar 19 01 Sep 03:58:11 04:01:39 18° 298° (WNW) 04:05:04 437.125/150
CUBESAT XI-V 01 Sep 04:03:02 04:05:38 15° 62° (ENE) 04:08:12 437.345
MOZHAYETS 4 01 Sep 04:04:20 04:08:53 75° 257° (WSW) 04:13:27
Gurwin Techsat 1B 01 Sep 04:08:02 04:12:36 30° 294° (WNW) 04:17:10 435.225
YUBILEINY 01 Sep 04:19:24 04:23:11 14° 74° (ENE) 04:26:58 435.215
AO-7 01 Sep 04:35:43 04:43:59 64° 104° (ESE) 04:52:10 29.400- 29.500
Cosmos 2491 01 Sep 04:57:43 05:06:32 64° 78° (ENE) 05:15:16 435.465 / 435.565
KKS-1 01 Sep 05:00:10 05:03:50 25° 265° (W) 05:07:32 437.445
AO-85 01 Sep 05:15:38 05:20:47 52° 307° (NW) 05:25:39 145.980
BRITE-PL 01 Sep 05:20:28 05:23:39 15° 87° (E) 05:26:46 437.365/2234.400
PHONESAT 2.4 01 Sep 05:21:16 05:22:49 13° 209° (SSW) 05:24:21 2401.200-2431.200
STARS 01 Sep 05:22:01 05:25:51 28° 264° (W) 05:29:42 437.465
ITAMSAT 1 01 Sep 05:22:57 05:26:44 21° 297° (WNW) 05:30:31 435.822/435.867
CUBESAT XI-V 01 Sep 05:37:54 05:42:28 62° 259° (W) 05:47:05 437.345
STRAND 1 01 Sep 05:47:32 05:49:15 12° 58° (ENE) 05:50:57 437.568
RS-15 01 Sep 06:03:31 06:12:55 24° 5° (N) 06:22:26 29.354- 29.394
ISS 01 Sep 06:08:23 06:09:40 12° 130° (SE) 06:10:58 145.825
GOMX 1 01 Sep 06:08:34 06:12:08 18° 89° (E) 06:15:33 467.674
YUBILEINY 01 Sep 06:09:32 06:18:18 73° 94° (E) 06:27:06 435.215
HORYU 2 01 Sep 06:11:44 06:16:11 89° 107° (ESE) 06:20:36 437.375
SO-50 01 Sep 06:28:14 06:32:03 25° 44° (NE) 06:35:47 436.795
AO-7 01 Sep 06:29:13 06:36:14 32° 304° (WNW) 06:43:14 29.400- 29.500
NOAA 18 01 Sep 06:42:11 06:46:54 29° 96° (E) 06:51:35 137.9125
NOAA 15 01 Sep 06:43:36 06:48:42 44° 99° (E) 06:53:45 137.62
Cubesat XI-IV 01 Sep 06:48:54 06:53:51 38° 98° (E) 06:58:48 437.490
Cosmos 2491 01 Sep 06:55:34 07:02:40 28° 278° (W) 07:09:46 435.465 / 435.565
BRITE-PL 01 Sep 06:57:01 07:02:44 77° 285° (WNW) 07:08:12 437.365/2234.400
CUTE-I 01 Sep 06:58:59 07:04:08 48° 100° (E) 07:09:15 437.470
AO-85 01 Sep 07:00:39 07:02:17 11° 327° (NNW) 07:03:54 145.980
Cosmos 2504 01 Sep 07:02:42 07:10:50 60° 92° (E) 07:18:24 435.465 / 435.565
LilacSat-2 01 Sep 07:05:11 07:08:56 60° 101° (E) 07:12:39 437.200
STRAND 1 01 Sep 07:22:31 07:27:36 86° 78° (ENE) 07:32:45 437.568
DOVE 4 01 Sep 07:26:21 07:31:04 43° 97° (E) 07:35:29 437.250
CINEMA 3 01 Sep 07:31:56 07:33:31 12° 88° (E) 07:35:05 145.822/145.860
BEESAT 3 01 Sep 07:41:40 07:43:40 14° 110° (ESE) 07:45:41 437.485
ISS 01 Sep 07:42:25 07:45:42 82° 327° (NNW) 07:49:00 145.825
GOMX 1 01 Sep 07:45:23 07:50:37 57° 287° (WNW) 07:55:32 467.674
PRISM 01 Sep 07:52:32 07:55:21 18° 65° (ENE) 07:58:12 437.425
SEEDS 01 Sep 07:54:22 07:55:11 10° 89° (E) 07:56:00 437.485
SO-50 01 Sep 08:08:21 08:12:43 44° 243° (WSW) 08:16:58 436.795
YUBILEINY 01 Sep 08:08:57 08:15:57 26° 295° (WNW) 08:23:00 435.215
CUSAT 1 01 Sep 08:11:28 08:15:10 15° 63° (ENE) 08:19:06 437.405
RS-15 01 Sep 08:18:25 08:30:00 43° 38° (NE) 08:41:27 29.354- 29.394
COMPASS 1 01 Sep 08:22:18 08:24:50 15° 92° (E) 08:27:21 437.405
NOAA 18 01 Sep 08:22:36 08:27:37 38° 293° (WNW) 08:32:36 137.9125
CANX-2 01 Sep 08:23:50 08:27:50 38° 98° (E) 08:31:48 2200.000
NOAA 15 01 Sep 08:23:56 08:28:12 25° 296° (WNW) 08:32:29 137.62
CUTE 1.7 + AOD 2 01 Sep 08:28:54 08:32:52 38° 98° (E) 08:36:50 437.475
Cubesat XI-IV 01 Sep 08:29:16 08:33:46 28° 295° (WNW) 08:38:14 437.490
BRITE-PL 01 Sep 08:38:02 08:40:10 12° 303° (WNW) 08:42:18 437.365/2234.400
UWE-3 01 Sep 08:38:56 08:39:47 11° 89° (E) 08:40:39 435.000/436.395/437.385
CUTE-I 01 Sep 08:39:44 08:43:51 23° 297° (WNW) 08:47:57 437.470
LilacSat-2 01 Sep 08:42:02 08:42:43 10° 297° (WNW) 08:43:24 437.200
AIST 1 01 Sep 08:46:39 08:50:53 52° 94° (E) 08:55:10
CUBEBUG 2 01 Sep 08:50:12 08:53:32 23° 94° (E) 08:56:49 437.445
HO-68 01 Sep 08:52:56 09:00:05 66° 103° (ESE) 09:07:09 435.675
Cosmos 2504 01 Sep 08:57:43 09:04:35 29° 290° (WNW) 09:11:07 435.465 / 435.565
DOVE 4 01 Sep 09:04:41 09:08:24 22° 296° (WNW) 09:11:58 437.250
STRAND 1 01 Sep 09:06:06 09:07:26 11° 272° (W) 09:08:45 437.568
CINEMA 3 01 Sep 09:06:46 09:11:09 61° 286° (WNW) 09:15:20 145.822/145.860
BEESAT 2 01 Sep 09:09:27 09:13:22 65° 120° (ESE) 09:17:19 435.950
ANTELSAT 01 Sep 09:16:07 09:19:03 17° 65° (ENE) 09:21:58 437.575/2403.000
BEESAT 3 01 Sep 09:17:05 09:20:54 52° 307° (NW) 09:24:46 437.485
ISS 01 Sep 09:20:00 09:22:33 20° 345° (NNW) 09:25:07 145.825
PRISM 01 Sep 09:26:31 09:30:22 39° 261° (W) 09:34:16 437.425
SEEDS 01 Sep 09:27:07 09:31:19 67° 285° (WNW) 09:35:30 437.485
Oscar 11 01 Sep 09:36:11 09:40:04 31° 96° (E) 09:43:56 145.826/435.025
AAUSAT CUBESAT 2 01 Sep 09:43:05 09:47:16 81° 284° (WNW) 09:51:27 437.432
TIGRISAT 01 Sep 09:44:17 09:48:16 31° 69° (ENE) 09:52:12 435.000
FUNcube-1 01 Sep 09:50:44 09:54:40 41° 98° (E) 09:58:34 145.935
CUSAT 1 01 Sep 09:51:06 09:58:01 72° 79° (E) 10:05:58 437.405
DANDE 01 Sep 09:55:29 10:00:52 34° 74° (ENE) 10:07:29 436.750
COMPASS 1 01 Sep 09:56:37 10:00:37 44° 287° (WNW) 10:04:36 437.405
CANX-2 01 Sep 10:00:23 10:03:25 19° 294° (WNW) 10:06:26 2200.000
CUTE 1.7 + AOD 2 01 Sep 10:05:24 10:08:27 19° 294° (WNW) 10:11:30 437.475
UWE-3 01 Sep 10:12:34 10:16:41 62° 286° (WNW) 10:20:46 435.000/436.395/437.385
UNISAT 6 01 Sep 10:14:03 10:18:35 68° 75° (ENE) 10:23:02 437.425
ZACube-1 01 Sep 10:15:05 10:19:15 87° 101° (ESE) 10:23:24 437.345
HUMSAT D 01 Sep 10:16:18 10:19:02 17° 93° (E) 10:21:47 437.325/437.525
AIST 1 01 Sep 10:26:28 10:28:50 14° 291° (WNW) 10:31:13
CUBEBUG 2 01 Sep 10:26:33 10:30:11 29° 291° (WNW) 10:33:46 437.445
QB50P2 01 Sep 10:27:17 10:29:40 15° 63° (ENE) 10:32:03 145.880/145.840
GONETS M04 01 Sep 10:28:37 10:35:04 24° 80° (E) 10:41:32
AIST 2 01 Sep 10:28:59 10:31:47 18° 111° (ESE) 10:34:37 435.215
POLYITAN 1 01 Sep 10:29:44 10:32:09 15° 64° (ENE) 10:34:35 437.675
RS-15 01 Sep 10:31:14 10:43:31 73° 243° (WSW) 10:55:32 29.354- 29.394
NANOSAT C BR1 01 Sep 10:33:16 10:35:43 15° 64° (ENE) 10:38:10 145.865
DELFI C3 01 Sep 10:37:26 10:41:26 65° 102° (ESE) 10:45:25 145.870
HO-68 01 Sep 10:41:33 10:47:14 26° 302° (WNW) 10:52:54 435.675
PCSat 01 Sep 10:42:02 10:47:10 46° 113° (ESE) 10:52:21 145.827
BEESAT 2 01 Sep 10:49:11 10:51:36 15° 319° (NW) 10:54:01 435.950
ANTELSAT 01 Sep 10:50:58 10:55:24 49° 260° (W) 10:59:45 437.575/2403.000
ISS 01 Sep 10:57:48 10:59:55 16° 5° (N) 11:02:02 145.825
JAS-2 01 Sep 11:03:28 11:07:28 22° 60° (ENE) 11:11:42 435.910
Oscar 11 01 Sep 11:12:37 11:16:03 23° 293° (WNW) 11:19:29 145.826/435.025
QB50P1 01 Sep 11:18:33 11:22:39 47° 72° (ENE) 11:26:46 145.935-145.965
M-CUBED/EXP-1 PRIME 01 Sep 11:19:51 11:21:28 12° 94° (E) 11:23:01 437.505
TIGRISAT 01 Sep 11:21:08 11:24:56 26° 265° (W) 11:28:41 435.000
FUNcube-1 01 Sep 11:27:56 11:30:35 17° 295° (WNW) 11:33:14 145.935
POPSAT HIP 1 01 Sep 11:28:58 11:33:11 61° 74° (ENE) 11:37:24 437.405
CUSAT 1 01 Sep 11:34:12 11:39:36 24° 273° (W) 11:45:30 437.405
DANDE 01 Sep 11:37:56 11:43:39 44° 265° (W) 11:50:43 436.750
Cosmos 2499 01 Sep 11:44:37 11:52:21 55° 92° (E) 11:59:34 435.465 / 435.565
DUCHIFAT 1 01 Sep 11:50:12 11:54:27 86° 256° (WSW) 11:58:43 145.980
HUMSAT D 01 Sep 11:51:00 11:54:48 38° 289° (WNW) 11:58:36 437.325/437.525
UNISAT 6 01 Sep 11:54:05 11:55:42 12° 270° (W) 11:57:20 437.425
O/OREOS (USA 219) 01 Sep 11:56:10 11:57:12 11° 97° (E) 11:58:14 437.305
Oscar 19 01 Sep 11:59:08 12:01:25 13° 58° (ENE) 12:03:41 437.125/150
QB50P2 01 Sep 12:00:51 12:05:02 53° 260° (W) 12:09:14 145.880/145.840
POLYITAN 1 01 Sep 12:03:20 12:07:32 52° 260° (W) 12:11:43 437.675
AIST 2 01 Sep 12:06:00 12:09:56 44° 308° (NW) 12:13:55 435.215
NANOSAT C BR1 01 Sep 12:06:52 12:11:01 51° 260° (W) 12:15:11 145.865
AISAT 01 Sep 12:07:40 12:11:25 26° 95° (E) 12:15:09 437.250
AO-85 01 Sep 12:07:41 12:10:56 20° 42° (NE) 12:14:01 145.980
DELFI C3 01 Sep 12:14:31 12:15:44 11° 297° (WNW) 12:16:56 145.870
ESTCUBE 1 01 Sep 12:21:05 12:25:38 68° 101° (ESE) 12:30:09 437.505/2401.250
GONETS M04 01 Sep 12:22:09 12:30:55 75° 280° (W) 12:39:47
BUGSAT 1 01 Sep 12:23:07 12:27:23 86° 262° (W) 12:31:38 437.445
PCSat 01 Sep 12:26:05 12:30:45 29° 312° (NW) 12:35:27 145.827
ISS 01 Sep 12:34:05 12:37:07 33° 25° (NNE) 12:40:08 145.825
SPROUT 01 Sep 12:34:46 12:38:18 25° 95° (E) 12:41:49 437.525
CUBEBUG 1 01 Sep 12:41:51 12:46:18 74° 102° (ESE) 12:50:41 437.445
AUBIESAT-1 01 Sep 12:41:58 12:45:54 82° 289° (WNW) 12:49:30 437.475
RS-15 01 Sep 12:46:53 12:53:40 17° 265° (W) 13:00:25 29.354- 29.394
JAS-2 01 Sep 12:46:59 12:52:05 52° 261° (W) 12:57:40 435.910
M-CUBED/EXP-1 PRIME 01 Sep 12:52:32 12:56:23 48° 293° (WNW) 12:59:56 437.505
DX 1 01 Sep 12:52:56 12:57:13 50° 100° (E) 13:01:28 434.975-435.025
VELOX 1 01 Sep 12:53:55 12:58:24 79° 103° (ESE) 13:02:50 145.980
QB50P1 01 Sep 12:56:11 12:58:40 15° 268° (W) 13:01:11 145.935-145.965
50 SAT 01 Sep 13:05:10 13:08:49 64° 284° (WNW) 13:12:26 437.505
POPSAT HIP 1 01 Sep 13:07:48 13:09:21 12° 270° (W) 13:10:54 437.405
UKube-1 01 Sep 13:22:58 13:27:20 85° 104° (ESE) 13:31:39 .
ITAMSAT 1 01 Sep 13:25:43 13:27:27 12° 57° (ENE) 13:29:10 435.822/435.867
O/OREOS (USA 219) 01 Sep 13:31:26 13:35:55 73° 294° (WNW) 13:40:28 437.305
Oscar 19 01 Sep 13:34:47 13:39:58 88° 255° (WSW) 13:45:11 437.125/150
Cosmos 2499 01 Sep 13:39:05 13:45:46 29° 290° (WNW) 13:52:07 435.465 / 435.565
AISAT 01 Sep 13:43:59 13:47:52 30° 292° (WNW) 13:51:42 437.250
AO-7 01 Sep 13:45:41 13:51:30 21° 50° (NE) 13:57:18 29.400- 29.500
AO-85 01 Sep 13:47:36 13:51:39 46° 243° (WSW) 13:55:26 145.980
Gurwin Techsat 1B 01 Sep 13:49:15 13:54:27 60° 72° (ENE) 13:59:41 435.225
ESTCUBE 1 01 Sep 13:59:41 14:01:53 13° 298° (WNW) 14:04:04 437.505/2401.250
TISAT 1 01 Sep 14:09:14 14:13:24 59° 101° (E) 14:17:30 437.305
SPROUT 01 Sep 14:10:33 14:14:13 28° 291° (WNW) 14:17:52 437.525
ISS 01 Sep 14:10:33 14:13:36 35° 222° (SW) 14:16:37 145.825
ITUPSAT 1 01 Sep 14:12:40 14:14:32 12° 90° (E) 14:16:23 437.325
CUBEBUG 1 01 Sep 14:20:20 14:21:57 12° 299° (WNW) 14:23:33 437.445
GONETS M04 01 Sep 14:24:33 14:29:28 16° 302° (WNW) 14:34:25
DX 1 01 Sep 14:30:16 14:33:00 16° 297° (WNW) 14:35:42 434.975-435.025
VELOX 1 01 Sep 14:32:48 14:34:12 11° 300° (WNW) 14:35:36 145.980
SWISSCUBE 01 Sep 14:40:53 14:44:57 27° 96° (E) 14:49:00 437.505
BEESAT 01 Sep 14:57:10 15:01:33 35° 98° (E) 15:05:54 436.000
ITAMSAT 1 01 Sep 15:00:54 15:06:04 83° 76° (ENE) 15:11:17 435.822/435.867
UKube-1 01 Sep 15:02:15 15:02:41 10° 300° (WNW) 15:03:07 .
Oscar 19 01 Sep 15:19:22 15:20:00 10° 273° (W) 15:20:37 437.125/150
Gurwin Techsat 1B 01 Sep 15:31:17 15:34:47 18° 269° (W) 15:38:19 435.225
AO-7 01 Sep 15:34:46 15:43:08 86° 70° (ENE) 15:51:32 29.400- 29.500
TISAT 1 01 Sep 15:46:34 15:48:33 13° 298° (WNW) 15:50:31 437.305
ITUPSAT 1 01 Sep 15:48:05 15:52:51 72° 286° (WNW) 15:57:37 437.325
BEESAT 3 01 Sep 15:57:30 15:59:27 13° 39° (NE) 16:01:24 437.485
MOZHAYETS 4 01 Sep 15:59:19 16:03:05 24° 94° (E) 16:06:49
Cosmos 2491 01 Sep 16:08:54 16:12:28 13° 73° (ENE) 16:16:01 435.465 / 435.565
SWISSCUBE 01 Sep 16:18:30 16:22:44 32° 292° (WNW) 16:26:58 437.505
YUBILEINY 01 Sep 16:19:36 16:27:34 37° 71° (ENE) 16:35:25 435.215
NOAA 15 01 Sep 16:29:29 16:30:24 10° 56° (NE) 16:31:20 137.62
BRITE-PL 01 Sep 16:31:31 16:34:51 17° 61° (ENE) 16:38:19 437.365/2234.400
BEESAT 01 Sep 16:35:15 16:39:10 25° 294° (WNW) 16:43:02 436.000
ITAMSAT 1 01 Sep 16:44:25 16:46:11 12° 271° (W) 16:47:56 435.822/435.867
CUTE-I 01 Sep 16:45:26 16:47:18 12° 57° (ENE) 16:49:09 437.470
KKS-1 01 Sep 16:49:37 16:54:02 60° 101° (ESE) 16:58:25 437.445
Cosmos 2504 01 Sep 16:55:55 17:00:47 19° 64° (ENE) 17:05:37 435.465 / 435.565
HORYU 2 01 Sep 17:09:47 17:14:14 86° 77° (ENE) 17:18:43 437.375
STARS 01 Sep 17:10:15 17:14:30 48° 100° (E) 17:18:42 437.465
GOMX 1 01 Sep 17:16:23 17:20:21 22° 63° (ENE) 17:24:26 467.674
BEESAT 2 01 Sep 17:27:02 17:30:53 43° 52° (NE) 17:34:43 435.950
AO-7 01 Sep 17:31:06 17:36:49 20° 269° (W) 17:42:36 29.400- 29.500
BEESAT 3 01 Sep 17:33:41 17:37:40 82° 238° (WSW) 17:41:37 437.485
CUBESAT XI-V 01 Sep 17:34:08 17:38:21 32° 96° (E) 17:42:32 437.345
MOZHAYETS 4 01 Sep 17:36:10 17:40:17 33° 291° (WNW) 17:44:24
HO-68 01 Sep 17:41:39 17:42:27 10° 46° (NE) 17:43:15 435.675
LilacSat-2 01 Sep 17:47:36 17:50:59 31° 71° (ENE) 17:54:22 437.200
Cosmos 2491 01 Sep 17:58:56 18:07:35 72° 94° (E) 18:16:19 435.465 / 435.565
NOAA 15 01 Sep 18:04:00 18:09:14 73° 73° (ENE) 18:14:31 137.62
BRITE-PL 01 Sep 18:07:39 18:12:38 67° 259° (W) 18:18:04 437.365/2234.400
NOAA 18 01 Sep 18:08:36 18:14:01 59° 71° (ENE) 18:19:27 137.9125
Cubesat XI-IV 01 Sep 18:11:11 18:16:28 66° 73° (ENE) 18:21:46 437.490
YUBILEINY 01 Sep 18:16:15 18:24:34 50° 271° (W) 18:32:50 435.215
CUTE-I 01 Sep 18:21:10 18:26:29 82° 75° (ENE) 18:31:50 437.470
KKS-1 01 Sep 18:27:41 18:30:06 15° 298° (WNW) 18:32:30 437.445
DOVE 4 01 Sep 18:31:01 18:36:02 48° 72° (ENE) 18:41:09 437.250
CINEMA 3 01 Sep 18:33:11 18:36:01 15° 63° (ENE) 18:38:48 145.822/145.860
STARS 01 Sep 18:47:39 18:50:28 17° 296° (WNW) 18:53:17 437.465
Cosmos 2504 01 Sep 18:47:49 18:55:01 77° 265° (W) 19:02:12 435.465 / 435.565
AIST 2 01 Sep 18:49:06 18:51:59 18° 42° (NE) 18:54:50 435.215
GOMX 1 01 Sep 18:52:52 18:57:58 54° 261° (W) 19:03:20 467.674
AIST 1 01 Sep 18:54:29 18:56:55 14° 69° (ENE) 18:59:20
BEESAT 2 01 Sep 19:05:43 19:08:23 17° 249° (WSW) 19:11:02 435.950
CUBESAT XI-V 01 Sep 19:11:38 19:15:36 28° 293° (WNW) 19:19:35 437.345
COMPASS 1 01 Sep 19:14:49 19:16:18 12° 62° (ENE) 19:17:46 437.405
CANX-2 01 Sep 19:17:08 19:20:45 29° 69° (ENE) 19:24:22 2200.000
HO-68 01 Sep 19:21:38 19:28:31 51° 66° (ENE) 19:35:25 435.675
CUTE 1.7 + AOD 2 01 Sep 19:22:06 19:25:42 28° 69° (ENE) 19:29:18 437.475
LilacSat-2 01 Sep 19:22:38 19:25:20 18° 266° (W) 19:28:02 437.200
PCSat 01 Sep 19:29:18 19:34:28 42° 53° (NE) 19:39:34 145.827
STRAND 1 01 Sep 19:33:00 19:37:22 28° 95° (E) 19:41:43 437.568
UWE-3 01 Sep 19:36:27 19:37:53 11° 62° (ENE) 19:39:18 435.000/436.395/437.385
NOAA 15 01 Sep 19:46:53 19:49:33 14° 270° (W) 19:52:14 137.62
CUBEBUG 2 01 Sep 19:48:31 19:52:07 23° 67° (ENE) 19:55:38 437.445
NOAA 18 01 Sep 19:51:10 19:55:02 19° 268° (W) 19:58:56 137.9125
Cubesat XI-IV 01 Sep 19:53:50 19:57:01 16° 269° (W) 20:00:11 437.490
Cosmos 2491 01 Sep 19:58:21 20:05:16 26° 295° (WNW) 20:12:17 435.465 / 435.565
CUTE-I 01 Sep 20:04:59 20:07:09 12° 271° (W) 20:09:19 437.470
CINEMA 3 01 Sep 20:07:36 20:12:36 69° 259° (W) 20:17:30 145.822/145.860
DOVE 4 01 Sep 20:09:51 20:13:55 23° 268° (W) 20:18:04 437.250
SEEDS 01 Sep 20:18:47 20:22:56 86° 82° (E) 20:27:08 437.485
AIST 2 01 Sep 20:26:41 20:30:49 60° 241° (WSW) 20:34:56 435.215
AIST 1 01 Sep 20:30:35 20:34:52 51° 266° (W) 20:39:05
Oscar 11 01 Sep 20:31:29 20:35:04 26° 68° (ENE) 20:38:39 145.826/435.025
AAUSAT CUBESAT 2 01 Sep 20:33:19 20:37:23 68° 75° (ENE) 20:41:29 437.432
GONETS M04 01 Sep 20:38:56 20:41:36 11° 53° (NE) 20:44:14
Cosmos 2504 01 Sep 20:45:03 20:47:01 11° 284° (WNW) 20:48:58 435.465 / 435.565
FUNcube-1 01 Sep 20:46:24 20:50:23 35° 71° (ENE) 20:54:19 145.935
COMPASS 1 01 Sep 20:47:13 20:51:18 65° 259° (W) 20:55:25 437.405
CANX-2 01 Sep 20:53:11 20:56:35 24° 266° (W) 21:00:00 2200.000
CUTE 1.7 + AOD 2 01 Sep 20:58:05 21:01:30 24° 265° (W) 21:04:57 437.475
PRISM 01 Sep 21:07:38 21:11:10 26° 96° (E) 21:14:40 437.425
HUMSAT D 01 Sep 21:08:53 21:10:59 14° 64° (ENE) 21:13:02 437.325/437.525
UWE-3 01 Sep 21:09:14 21:13:45 77° 258° (WSW) 21:18:11 435.000/436.395/437.385
HO-68 01 Sep 21:10:10 21:16:26 32° 264° (W) 21:22:45 435.675
ZACube-1 01 Sep 21:10:44 21:15:07 71° 76° (ENE) 21:19:26 437.345
STRAND 1 01 Sep 21:11:56 21:16:34 36° 292° (WNW) 21:21:12 437.568
PCSat 01 Sep 21:13:03 21:17:40 29° 251° (WSW) 21:22:16 145.827
DELFI C3 01 Sep 21:23:35 21:27:14 37° 72° (ENE) 21:30:54 145.870
CUBEBUG 2 01 Sep 21:24:16 21:28:32 36° 263° (W) 21:32:43 437.445
Cosmos 2499 01 Sep 21:36:11 21:40:35 17° 64° (ENE) 21:45:00 435.465 / 435.565
AUBIESAT-1 01 Sep 21:54:53 21:57:40 16° 58° (ENE) 22:00:24 437.475
O/OREOS (USA 219) 01 Sep 22:02:11 22:06:01 25° 57° (ENE) 22:09:49 437.305
M-CUBED/EXP-1 PRIME 01 Sep 22:04:36 22:08:20 24° 61° (ENE) 22:12:01 437.505
UNISAT 6 01 Sep 22:07:14 22:09:06 13° 90° (E) 22:10:57 437.425
Oscar 11 01 Sep 22:07:25 22:11:06 28° 264° (W) 22:14:49 145.826/435.025
SO-50 01 Sep 22:22:06 22:26:49 53° 118° (ESE) 22:31:31 436.795
FUNcube-1 01 Sep 22:23:24 22:26:42 21° 266° (W) 22:29:58 145.935
GONETS M04 01 Sep 22:31:58 22:40:42 58° 77° (ENE) 22:49:21
HUMSAT D 01 Sep 22:42:07 22:46:09 53° 260° (W) 22:50:11 437.325/437.525
ANTELSAT 01 Sep 22:42:23 22:46:10 30° 96° (E) 22:49:56 437.575/2403.000
PRISM 01 Sep 22:42:52 22:46:24 27° 292° (WNW) 22:49:55 437.425
RS-15 01 Sep 22:48:09 22:54:47 17° 96° (E) 23:01:33 29.354- 29.394
ZACube-1 01 Sep 22:51:03 22:51:50 10° 271° (W) 22:52:38 437.345
CUSAT 1 01 Sep 22:56:20 22:59:31 55° 95° (E) 23:03:38 437.405
DELFI C3 01 Sep 22:59:45 23:02:14 16° 268° (W) 23:04:43 145.870
